{"data":{"norad_id":58490,"intl_designator":"2023-186T","name":"STARLINK-30978","alt_names":[],"object_type":"PAYLOAD","status":"ACTIVE","operator":null,"country":"US","launch_date":"2023-12-03","launch_site_code":"AFETR","launch_vehicle":null,"mission":null,"orbit_class":"UNKNOWN","rcs_meters":null,"size_class":null,"mass_kg":null,"dimensions":null,"purposes":["comms"],"wikipedia_slug":null,"has_3d_model":false,"image_url":null,"decayed_at":null,"tle_current":{"epoch":"2026-09-20T09:18:36.237888Z","epoch_age_seconds":156432,"freshness":"FRESH","line1":"1 58490U 23186T   26263.38791942  .00001167  00000+0  51923-4 0  9996","line2":"2 58490  43.0057  44.0181 0002161 269.4253  90.6351 15.27579246155661","mean_motion":15.27579246,"eccentricity":0.0002161,"inclination_deg":43.0057,"raan_deg":44.0181,"arg_perigee_deg":269.4253,"mean_anomaly_deg":90.6351,"bstar":5.1923e-5,"rev_number":15566,"period_min":94.266795242909,"perigee_km":481.56865098458,"apogee_km":484.53405659109,"semimajor_km":6861.1883537878,"source":"CELESTRAK","updated_at":"2026-09-21T09:00:33.904958Z"}}}